| time (UTC) | temp F | wind direction | speed MPH | gust MPH | rain 1hr in | rain 24hr in | rain mn in | humidity % | barometer mb |
| 20260905215018 | 55 | 254 | 7.0 | 0.0 | 0.00 | 0.00 | 0.00 | 100 | 1013.3 |
| 20260905214544 | 55 | 265 | 8.0 | 0.0 | 0.00 | 0.00 | 0.00 | 100 | 1013.3 |
| 20260905214025 | 55 | 271 | 7.0 | 0.0 | 0.00 | 0.00 | 0.00 | 100 | 1013.3 |
| 20260905213504 | 55 | 280 | 5.0 | 0.0 | 0.00 | 0.00 | 0.00 | 100 | 1013.3 |
| 20260905213030 | 55 | 272 | 5.0 | 0.0 | 0.00 | 0.00 | 0.00 | 100 | 1013.3 |
| 20260905212511 | 55 | 283 | 5.0 | 0.0 | 0.00 | 0.00 | 0.00 | 100 | 1013.2 |
| 20260905212037 | 55 | 242 | 4.0 | 0.0 | 0.00 | 0.00 | 0.00 | 100 | 1013.2 |
| 20260905211517 | 55 | 247 | 5.0 | 0.0 | 0.00 | 0.00 | 0.00 | 100 | 1013.2 |
| 20260905211043 | 55 | 270 | 8.0 | 0.0 | 0.00 | 0.00 | 0.00 | 100 | 1013.2 |
| 20260905210523 | 55 | 260 | 8.0 | 0.0 | 0.00 | 0.00 | 0.00 | 100 | 1013.2 |
| 20260905210004 | 55 | 266 | 6.0 | 0.0 | 0.00 | 0.00 | 0.00 | 100 | 1013.2 |
| 20260905205530 | 55 | 253 | 4.0 | 0.0 | 0.00 | 0.00 | 0.00 | 100 | 1013.0 |
| 20260905205010 | 55 | 268 | 6.0 | 0.0 | 0.00 | 0.00 | 0.00 | 100 | 1013.1 |
| 20260905204536 | 55 | 245 | 7.0 | 0.0 | 0.00 | 0.00 | 0.00 | 100 | 1013.1 |
| 20260905204016 | 55 | 266 | 9.0 | 0.0 | 0.00 | 0.00 | 0.00 | 100 | 1013.1 |
| 20260905203542 | 55 | 249 | 6.0 | 0.0 | 0.00 | 0.00 | 0.00 | 100 | 1013.0 |
| 20260905203022 | 55 | 255 | 6.0 | 0.0 | 0.00 | 0.00 | 0.00 | 100 | 1013.0 |
| 20260905202503 | 55 | 254 | 8.0 | 0.0 | 0.00 | 0.00 | 0.00 | 100 | 1013.1 |
| 20260905202029 | 56 | 271 | 6.0 | 0.0 | 0.00 | 0.00 | 0.00 | 100 | 1013.1 |
| 20260905201509 | 56 | 266 | 10.0 | 0.0 | 0.00 | 0.00 | 0.00 | 100 | 1013.1 |
| 20260905201035 | 56 | 271 | 8.0 | 0.0 | 0.00 | 0.00 | 0.00 | 100 | 1013.1 |
| 20260905200515 | 56 | 258 | 9.0 | 0.0 | 0.00 | 0.00 | 0.00 | 100 | 1013.0 |
| 20260905200042 | 56 | 253 | 8.0 | 0.0 | 0.00 | 0.00 | 0.00 | 100 | 1013.0 |
| 20260905195521 | 56 | 259 | 6.0 | 0.0 | 0.00 | 0.00 | 0.00 | 100 | 1013.1 |
| 20260905195002 | 56 | 266 | 8.0 | 0.0 | 0.00 | 0.00 | 0.00 | 100 | 1013.1 |
| 20260905194528 | 56 | 262 | 11.0 | 0.0 | 0.00 | 0.00 | 0.00 | 100 | 1013.1 |
| 20260905194008 | 56 | 273 | 5.0 | 0.0 | 0.00 | 0.00 | 0.00 | 100 | 1013.1 |
| 20260905193535 | 56 | 246 | 5.0 | 0.0 | 0.00 | 0.00 | 0.00 | 100 | 1013.2 |
| 20260905193014 | 56 | 278 | 6.0 | 0.0 | 0.00 | 0.00 | 0.00 | 100 | 1013.2 |
| 20260905192541 | 56 | 262 | 11.0 | 0.0 | 0.00 | 0.00 | 0.00 | 100 | 1013.1 |
| 20260905192022 | 56 | 261 | 9.0 | 0.0 | 0.00 | 0.00 | 0.00 | 100 | 1013.1 |
| 20260905191501 | 56 | 247 | 4.0 | 0.0 | 0.00 | 0.00 | 0.00 | 100 | 1013.1 |
| 20260905191028 | 56 | 241 | 6.0 | 0.0 | 0.00 | 0.00 | 0.00 | 100 | 1013.2 |
| 20260905190508 | 56 | 256 | 10.0 | 0.0 | 0.00 | 0.00 | 0.00 | 100 | 1013.1 |
| 20260905190034 | 56 | 280 | 4.0 | 0.0 | 0.00 | 0.00 | 0.00 | 100 | 1013.1 |
| 20260905185515 | 56 | 284 | 7.0 | 0.0 | 0.00 | 0.00 | 0.00 | 100 | 1013.0 |
| 20260905185040 | 56 | 258 | 7.0 | 0.0 | 0.00 | 0.00 | 0.00 | 100 | 1013.0 |
| 20260905184521 | 56 | 260 | 8.0 | 0.0 | 0.00 | 0.00 | 0.00 | 100 | 1013.0 |
| 20260905184001 | 56 | 276 | 11.0 | 0.0 | 0.00 | 0.00 | 0.00 | 100 | 1012.9 |
| 20260905183527 | 56 | 288 | 5.0 | 0.0 | 0.00 | 0.00 | 0.00 | 100 | 1012.9 |
| 20260905183007 | 57 | 270 | 7.0 | 0.0 | 0.00 | 0.00 | 0.00 | 100 | 1012.8 |
| 20260905182533 | 57 | 259 | 6.0 | 0.0 | 0.00 | 0.00 | 0.00 | 100 | 1012.8 |
| 20260905182013 | 57 | 276 | 5.0 | 0.0 | 0.00 | 0.00 | 0.00 | 100 | 1012.8 |
| 20260905181539 | 56 | 266 | 8.0 | 0.0 | 0.00 | 0.00 | 0.00 | 100 | 1012.7 |
| 20260905181019 | 56 | 270 | 7.0 | 0.0 | 0.00 | 0.00 | 0.00 | 100 | 1012.6 |
| 20260905180545 | 56 | 262 | 11.0 | 0.0 | 0.00 | 0.00 | 0.00 | 100 | 1012.5 |
| 20260905180026 | 56 | 262 | 11.0 | 0.0 | 0.00 | 0.00 | 0.00 | 100 | 1012.5 |
| 20260905175507 | 56 | 274 | 12.0 | 0.0 | 0.00 | 0.00 | 0.00 | 100 | 1012.5 |
| 20260905175033 | 56 | 254 | 8.0 | 0.0 | 0.00 | 0.00 | 0.00 | 100 | 1012.5 |
| 20260905174513 | 56 | 253 | 11.0 | 0.0 | 0.00 | 0.00 | 0.00 | 100 | 1012.5 |
| 20260905174039 | 56 | 262 | 9.0 | 0.0 | 0.00 | 0.00 | 0.00 | 100 | 1012.3 |
| 20260905173518 | 56 | 271 | 9.0 | 0.0 | 0.00 | 0.00 | 0.00 | 100 | 1012.5 |
| 20260905173044 | 56 | 259 | 9.0 | 0.0 | 0.00 | 0.00 | 0.00 | 100 | 1012.5 |
| 20260905172524 | 56 | 266 | 8.0 | 0.0 | 0.00 | 0.00 | 0.00 | 100 | 1012.3 |
| 20260905172006 | 56 | 267 | 12.0 | 0.0 | 0.00 | 0.00 | 0.00 | 100 | 1012.3 |
| 20260905171531 | 56 | 269 | 7.0 | 0.0 | 0.00 | 0.00 | 0.00 | 100 | 1012.2 |
| 20260905171012 | 57 | 262 | 9.0 | 0.0 | 0.00 | 0.00 | 0.00 | 100 | 1012.1 |
| 20260905170538 | 57 | 249 | 12.0 | 0.0 | 0.00 | 0.00 | 0.00 | 100 | 1012.2 |
| 20260905170018 | 57 | 243 | 7.0 | 0.0 | 0.00 | 0.00 | 0.00 | 100 | 1012.2 |
| 20260905165545 | 57 | 271 | 8.0 | 0.0 | 0.00 | 0.00 | 0.00 | 100 | 1012.2 |
| 20260905165024 | 57 | 264 | 10.0 | 0.0 | 0.00 | 0.00 | 0.00 | 100 | 1012.1 |
| 20260905164504 | 58 | 264 | 9.0 | 0.0 | 0.00 | 0.00 | 0.00 | 100 | 1012.0 |
| 20260905164032 | 58 | 251 | 13.0 | 0.0 | 0.00 | 0.00 | 0.00 | 100 | 1011.8 |
| 20260905163511 | 58 | 270 | 15.0 | 0.0 | 0.00 | 0.00 | 0.00 | 100 | 1011.9 |
| 20260905163037 | 59 | 263 | 9.0 | 0.0 | 0.00 | 0.00 | 0.00 | 100 | 1011.8 |
| 20260905162519 | 59 | 264 | 8.0 | 0.0 | 0.00 | 0.00 | 0.00 | 99 | 1011.6 |
| 20260905162044 | 59 | 270 | 14.0 | 0.0 | 0.00 | 0.00 | 0.00 | 99 | 1011.6 |
| 20260905161524 | 60 | 260 | 15.0 | 0.0 | 0.00 | 0.00 | 0.00 | 98 | 1011.6 |
| 20260905161005 | 60 | 263 | 8.0 | 0.0 | 0.00 | 0.00 | 0.00 | 99 | 1011.6 |
| 20260905160531 | 60 | 259 | 13.0 | 0.0 | 0.00 | 0.00 | 0.00 | 99 | 1011.6 |
| 20260905160011 | 60 | 264 | 15.0 | 0.0 | 0.00 | 0.00 | 0.00 | 99 | 1011.6 |
| 20260905155536 | 60 | 264 | 12.0 | 0.0 | 0.00 | 0.00 | 0.00 | 99 | 1011.6 |
| 20260905155017 | 60 | 268 | 10.0 | 0.0 | 0.00 | 0.00 | 0.00 | 98 | 1011.6 |
| 20260905154543 | 61 | 265 | 14.0 | 0.0 | 0.00 | 0.00 | 0.00 | 95 | 1011.6 |
| 20260905154023 | 61 | 261 | 11.0 | 0.0 | 0.00 | 0.00 | 0.00 | 94 | 1011.6 |
| 20260905153504 | 61 | 268 | 9.0 | 0.0 | 0.00 | 0.00 | 0.00 | 94 | 1011.5 |
| 20260905153029 | 61 | 266 | 11.0 | 0.0 | 0.00 | 0.00 | 0.00 | 91 | 1011.4 |
| 20260905152510 | 61 | 262 | 13.0 | 0.0 | 0.00 | 0.00 | 0.00 | 91 | 1011.4 |
| 20260905152036 | 61 | 257 | 9.0 | 0.0 | 0.00 | 0.00 | 0.00 | 90 | 1011.5 |
| 20260905151516 | 61 | 264 | 19.0 | 0.0 | 0.00 | 0.00 | 0.00 | 88 | 1011.5 |
| 20260905151042 | 62 | 263 | 18.0 | 0.0 | 0.00 | 0.00 | 0.00 | 89 | 1011.4 |
| 20260905150522 | 62 | 267 | 13.0 | 0.0 | 0.00 | 0.00 | 0.00 | 89 | 1011.3 |
| 20260905150002 | 62 | 272 | 16.0 | 0.0 | 0.00 | 0.00 | 0.00 | 91 | 1011.6 |
| 20260905145529 | 62 | 261 | 12.0 | 0.0 | 0.00 | 0.00 | 0.00 | 90 | 1011.6 |
| 20260905145009 | 61 | 262 | 13.0 | 0.0 | 0.00 | 0.00 | 0.00 | 91 | 1011.7 |
| 20260905144535 | 62 | 271 | 10.0 | 0.0 | 0.00 | 0.00 | 0.00 | 94 | 1011.6 |
| 20260905144016 | 61 | 274 | 11.0 | 0.0 | 0.00 | 0.00 | 0.00 | 99 | 1011.7 |
| 20260905143542 | 61 | 254 | 7.0 | 0.0 | 0.00 | 0.00 | 0.00 | 98 | 1011.7 |
| 20260905143022 | 61 | 250 | 14.0 | 0.0 | 0.00 | 0.00 | 0.00 | 98 | 1011.7 |
| 20260905142502 | 60 | 264 | 7.0 | 0.0 | 0.00 | 0.00 | 0.00 | 100 | 1011.7 |
| 20260905142028 | 60 | 259 | 12.0 | 0.0 | 0.00 | 0.00 | 0.00 | 100 | 1011.7 |
| 20260905141508 | 58 | 277 | 12.0 | 0.0 | 0.00 | 0.00 | 0.00 | 100 | 1011.8 |
| 20260905141035 | 58 | 255 | 11.0 | 0.0 | 0.00 | 0.00 | 0.00 | 100 | 1011.9 |
| 20260905140514 | 58 | 253 | 9.0 | 0.0 | 0.00 | 0.00 | 0.00 | 100 | 1011.8 |
| 20260905140041 | 58 | 263 | 14.0 | 0.0 | 0.00 | 0.00 | 0.00 | 100 | 1011.6 |
| 20260905135521 | 58 | 269 | 14.0 | 0.0 | 0.00 | 0.00 | 0.00 | 100 | 1011.4 |
| 20260905135001 | 58 | 263 | 10.0 | 0.0 | 0.00 | 0.00 | 0.00 | 100 | 1011.6 |
| 20260905134528 | 58 | 266 | 10.0 | 0.0 | 0.00 | 0.00 | 0.00 | 100 | 1011.4 |
| 20260905134008 | 58 | 281 | 9.0 | 0.0 | 0.00 | 0.00 | 0.00 | 100 | 1011.5 |
| 20260905133534 | 59 | 264 | 18.0 | 0.0 | 0.00 | 0.00 | 0.00 | 97 | 1011.5 |
| 20260905133014 | 59 | 256 | 13.0 | 0.0 | 0.00 | 0.00 | 0.00 | 94 | 1011.5 |
| 20260905132541 | 60 | 267 | 16.0 | 0.0 | 0.00 | 0.00 | 0.00 | 93 | 1011.5 |
| 20260905132020 | 61 | 264 | 16.0 | 0.0 | 0.00 | 0.00 | 0.00 | 92 | 1011.4 |
| 20260905131501 | 61 | 263 | 15.0 | 0.0 | 0.00 | 0.00 | 0.00 | 88 | 1011.4 |
| 20260905131026 | 62 | 268 | 14.0 | 0.0 | 0.00 | 0.00 | 0.00 | 91 | 1011.2 |
| 20260905130507 | 62 | 264 | 11.0 | 0.0 | 0.00 | 0.00 | 0.00 | 92 | 1011.3 |
| 20260905130033 | 62 | 279 | 6.0 | 0.0 | 0.00 | 0.00 | 0.00 | 95 | 1011.2 |
| 20260905125513 | 61 | 292 | 11.0 | 0.0 | 0.00 | 0.00 | 0.00 | 95 | 1011.1 |
| 20260905125039 | 62 | 276 | 14.0 | 0.0 | 0.00 | 0.00 | 0.00 | 94 | 1011.1 |
| 20260905124520 | 63 | 295 | 9.0 | 0.0 | 0.00 | 0.00 | 0.00 | 95 | 1011.3 |
| 20260905124046 | 63 | 263 | 8.0 | 0.0 | 0.00 | 0.00 | 0.00 | 96 | 1011.2 |
| 20260905123525 | 63 | 269 | 19.0 | 0.0 | 0.00 | 0.00 | 0.00 | 94 | 1011.2 |
| 20260905123006 | 63 | 266 | 10.0 | 0.0 | 0.00 | 0.00 | 0.00 | 99 | 1011.1 |
| 20260905122532 | 62 | 264 | 11.0 | 0.0 | 0.00 | 0.00 | 0.00 | 100 | 1010.9 |
| 20260905122012 | 62 | 290 | 15.0 | 0.0 | 0.00 | 0.00 | 0.00 | 100 | 1010.9 |
| 20260905121538 | 62 | 263 | 11.0 | 0.0 | 0.00 | 0.00 | 0.00 | 100 | 1011.0 |
| 20260905121019 | 62 | 265 | 19.0 | 0.0 | 0.00 | 0.00 | 0.00 | 100 | 1010.9 |
| 20260905120544 | 62 | 261 | 9.0 | 0.0 | 0.00 | 0.00 | 0.00 | 100 | 1010.9 |
| 20260905120025 | 62 | 266 | 15.0 | 0.0 | 0.00 | 0.00 | 0.00 | 100 | 1010.9 |
| 20260905115505 | 61 | 287 | 5.0 | 0.0 | 0.00 | 0.00 | 0.00 | 100 | 1010.9 |
| 20260905115031 | 62 | 255 | 15.0 | 0.0 | 0.00 | 0.00 | 0.00 | 100 | 1010.7 |
| 20260905114511 | 62 | 256 | 18.0 | 0.0 | 0.00 | 0.00 | 0.00 | 100 | 1010.7 |
| 20260905114037 | 62 | 272 | 7.0 | 0.0 | 0.00 | 0.00 | 0.00 | 100 | 1010.7 |
| 20260905113518 | 61 | 257 | 11.0 | 0.0 | 0.00 | 0.00 | 0.00 | 100 | 1010.7 |
| 20260905113044 | 61 | 268 | 9.0 | 0.0 | 0.00 | 0.00 | 0.00 | 100 | 1010.7 |
| 20260905112524 | 59 | 267 | 12.0 | 0.0 | 0.00 | 0.00 | 0.00 | 100 | 1010.8 |
| 20260905112004 | 59 | 261 | 10.0 | 0.0 | 0.00 | 0.00 | 0.00 | 100 | 1010.8 |
| 20260905111531 | 59 | 266 | 11.0 | 0.0 | 0.00 | 0.00 | 0.00 | 100 | 1010.7 |
| 20260905111011 | 59 | 263 | 10.0 | 0.0 | 0.00 | 0.00 | 0.00 | 100 | 1010.8 |
| 20260905110538 | 59 | 262 | 12.0 | 0.0 | 0.00 | 0.00 | 0.00 | 100 | 1010.7 |
| 20260905110017 | 59 | 315 | 10.0 | 0.0 | 0.00 | 0.00 | 0.00 | 100 | 1010.7 |
| 20260905105543 | 59 | 266 | 15.0 | 0.0 | 0.00 | 0.00 | 0.00 | 100 | 1010.6 |
| 20260905105024 | 58 | 281 | 8.0 | 0.0 | 0.00 | 0.00 | 0.00 | 100 | 1010.7 |
| 20260905104504 | 59 | 263 | 19.0 | 0.0 | 0.00 | 0.00 | 0.00 | 100 | 1010.6 |
| 20260905104030 | 59 | 268 | 12.0 | 0.0 | 0.00 | 0.00 | 0.00 | 100 | 1010.6 |
| 20260905103511 | 60 | 257 | 17.0 | 0.0 | 0.00 | 0.00 | 0.00 | 100 | 1010.3 |
| 20260905103037 | 60 | 267 | 13.0 | 0.0 | 0.00 | 0.00 | 0.00 | 100 | 1010.2 |
| 20260905102517 | 59 | 270 | 11.0 | 0.0 | 0.00 | 0.00 | 0.00 | 100 | 1010.1 |
| 20260905102043 | 58 | 258 | 8.0 | 0.0 | 0.00 | 0.00 | 0.00 | 100 | 1010.0 |
| 20260905101524 | 57 | 265 | 9.0 | 0.0 | 0.00 | 0.00 | 0.00 | 100 | 1010.1 |
| 20260905101003 | 57 | 276 | 8.0 | 0.0 | 0.00 | 0.00 | 0.00 | 100 | 1010.1 |
| 20260905100529 | 57 | 261 | 12.0 | 0.0 | 0.00 | 0.00 | 0.00 | 100 | 1010.2 |
| 20260905100009 | 57 | 261 | 10.0 | 0.0 | 0.00 | 0.00 | 0.00 | 100 | 1010.1 |
| 20260905095535 | 57 | 257 | 13.0 | 0.0 | 0.00 | 0.00 | 0.00 | 100 | 1010.1 |
| 20260905095016 | 57 | 268 | 13.0 | 0.0 | 0.00 | 0.00 | 0.00 | 100 | 1010.1 |
| 20260905094541 | 57 | 276 | 10.0 | 0.0 | 0.00 | 0.00 | 0.00 | 100 | 1010.0 |
| 20260905094022 | 57 | 291 | 11.0 | 0.0 | 0.00 | 0.00 | 0.00 | 100 | 1009.9 |
| 20260905093503 | 59 | 275 | 12.0 | 0.0 | 0.00 | 0.00 | 0.00 | 100 | 1009.8 |
| 20260905093028 | 60 | 279 | 11.0 | 0.0 | 0.00 | 0.00 | 0.00 | 100 | 1009.8 |
| 20260905092509 | 60 | 280 | 10.0 | 0.0 | 0.00 | 0.00 | 0.00 | 100 | 1009.6 |
| 20260905092035 | 60 | 256 | 8.0 | 0.0 | 0.00 | 0.00 | 0.00 | 100 | 1009.6 |
| 20260905091515 | 59 | 314 | 6.0 | 0.0 | 0.00 | 0.00 | 0.00 | 100 | 1009.6 |
| 20260905091041 | 60 | 285 | 10.0 | 0.0 | 0.00 | 0.00 | 0.00 | 100 | 1009.4 |
| 20260905090521 | 60 | 262 | 17.0 | 0.0 | 0.00 | 0.00 | 0.00 | 100 | 1009.3 |
| 20260905090001 | 61 | 261 | 6.0 | 0.0 | 0.00 | 0.00 | 0.00 | 100 | 1009.2 |
| 20260905085527 | 62 | 255 | 10.0 | 0.0 | 0.00 | 0.00 | 0.00 | 99 | 1009.1 |
| 20260905085008 | 62 | 267 | 7.0 | 0.0 | 0.00 | 0.00 | 0.00 | 99 | 1009.1 |
| 20260905084533 | 63 | 281 | 11.0 | 0.0 | 0.00 | 0.00 | 0.00 | 100 | 1008.9 |
| 20260905084014 | 62 | 266 | 10.0 | 0.0 | 0.00 | 0.00 | 0.00 | 100 | 1008.9 |
| 20260905083541 | 62 | 281 | 6.0 | 0.0 | 0.00 | 0.00 | 0.00 | 100 | 1008.9 |
| 20260905083020 | 62 | 285 | 9.0 | 0.0 | 0.00 | 0.00 | 0.00 | 100 | 1008.8 |
| 20260905082501 | 62 | 263 | 18.0 | 0.0 | 0.00 | 0.00 | 0.00 | 100 | 1008.7 |
| 20260905082027 | 62 | 280 | 11.0 | 0.0 | 0.00 | 0.00 | 0.00 | 100 | 1008.7 |
| 20260905081507 | 62 | 314 | 10.0 | 0.0 | 0.00 | 0.00 | 0.00 | 100 | 1008.6 |
| 20260905081033 | 62 | 265 | 16.0 | 0.0 | 0.00 | 0.00 | 0.00 | 100 | 1008.4 |
| 20260905080513 | 61 | 276 | 9.0 | 0.0 | 0.00 | 0.00 | 0.00 | 100 | 1008.4 |
| 20260905080039 | 60 | 268 | 13.0 | 0.0 | 0.00 | 0.00 | 0.00 | 100 | 1008.4 |
| 20260905075521 | 60 | 286 | 10.0 | 0.0 | 0.00 | 0.00 | 0.00 | 100 | 1008.3 |
| 20260905075046 | 59 | 282 | 9.0 | 0.0 | 0.00 | 0.00 | 0.00 | 100 | 1008.2 |
| 20260905074527 | 59 | 263 | 11.0 | 0.0 | 0.00 | 0.00 | 0.00 | 100 | 1008.2 |
| 20260905074007 | 59 | 264 | 15.0 | 0.0 | 0.00 | 0.00 | 0.00 | 100 | 1008.2 |
| 20260905073533 | 60 | 272 | 5.0 | 0.0 | 0.00 | 0.00 | 0.00 | 100 | 1008.1 |
| 20260905073013 | 60 | 286 | 9.0 | 0.0 | 0.00 | 0.00 | 0.00 | 100 | 1008.0 |
| 20260905072539 | 59 | 275 | 7.0 | 0.0 | 0.00 | 0.00 | 0.00 | 100 | 1007.9 |
| 20260905072019 | 58 | 273 | 8.0 | 0.0 | 0.00 | 0.00 | 0.00 | 100 | 1007.9 |
| 20260905071545 | 58 | 281 | 13.0 | 0.0 | 0.00 | 0.00 | 0.00 | 100 | 1008.0 |
| 20260905071026 | 57 | 296 | 8.0 | 0.0 | 0.00 | 0.00 | 0.00 | 100 | 1007.9 |
| 20260905070506 | 57 | 273 | 7.0 | 0.0 | 0.00 | 0.00 | 0.00 | 100 | 1007.8 |
| 20260905070032 | 57 | 267 | 11.0 | 0.0 | 0.00 | 0.00 | 0.00 | 100 | 1007.7 |
| 20260905065512 | 56 | 270 | 9.0 | 0.0 | 0.00 | 0.00 | 0.00 | 100 | 1007.7 |
| 20260905065038 | 57 | 288 | 8.0 | 0.0 | 0.00 | 0.00 | 0.00 | 100 | 1007.6 |
| 20260905064518 | 57 | 268 | 9.0 | 0.0 | 0.00 | 0.00 | 0.00 | 100 | 1007.6 |
| 20260905064044 | 57 | 267 | 8.0 | 0.0 | 0.00 | 0.00 | 0.00 | 100 | 1007.5 |
| 20260905063524 | 57 | 256 | 8.0 | 0.0 | 0.00 | 0.00 | 0.00 | 100 | 1007.5 |
| 20260905063005 | 56 | 273 | 6.0 | 0.0 | 0.00 | 0.00 | 0.00 | 100 | 1007.5 |
| 20260905062531 | 56 | 273 | 4.0 | 0.0 | 0.00 | 0.00 | 0.00 | 100 | 1007.4 |
| 20260905062011 | 56 | 308 | 3.0 | 0.0 | 0.00 | 0.00 | 0.00 | 100 | 1007.4 |
| 20260905061537 | 56 | 312 | 4.0 | 0.0 | 0.00 | 0.00 | 0.00 | 100 | 1007.3 |
| 20260905061017 | 56 | 267 | 8.0 | 0.0 | 0.00 | 0.00 | 0.00 | 100 | 1007.0 |
| 20260905060543 | 56 | 276 | 12.0 | 0.0 | 0.00 | 0.00 | 0.00 | 100 | 1007.1 |
| 20260905060024 | 56 | 274 | 7.0 | 0.0 | 0.00 | 0.00 | 0.00 | 100 | 1007.2 |
| 20260905055504 | 57 | 260 | 16.0 | 0.0 | 0.00 | 0.00 | 0.00 | 100 | 1007.0 |
| 20260905055030 | 57 | 283 | 7.0 | 0.0 | 0.00 | 0.00 | 0.00 | 100 | 1006.9 |
| 20260905054510 | 57 | 276 | 8.0 | 0.0 | 0.00 | 0.00 | 0.00 | 100 | 1006.8 |
| 20260905054037 | 58 | 266 | 12.0 | 0.0 | 0.00 | 0.00 | 0.00 | 100 | 1006.6 |
| 20260905053517 | 58 | 253 | 12.0 | 0.0 | 0.00 | 0.00 | 0.00 | 100 | 1006.7 |
| 20260905053044 | 58 | 263 | 11.0 | 0.0 | 0.00 | 0.00 | 0.00 | 100 | 1006.8 |
| 20260905052523 | 58 | 262 | 11.0 | 0.0 | 0.00 | 0.00 | 0.00 | 100 | 1006.5 |
| 20260905052004 | 58 | 247 | 8.0 | 0.0 | 0.00 | 0.00 | 0.00 | 100 | 1006.4 |
| 20260905051529 | 58 | 257 | 9.0 | 0.0 | 0.00 | 0.00 | 0.00 | 100 | 1006.4 |
| 20260905051010 | 58 | 286 | 8.0 | 0.0 | 0.00 | 0.00 | 0.00 | 100 | 1006.4 |
| 20260905050536 | 57 | 259 | 12.0 | 0.0 | 0.00 | 0.00 | 0.00 | 100 | 1006.4 |
| 20260905050017 | 57 | 263 | 6.0 | 0.0 | 0.00 | 0.00 | 0.00 | 100 | 1006.3 |
| 20260905045543 | 57 | 276 | 8.0 | 0.0 | 0.00 | 0.00 | 0.00 | 100 | 1006.4 |
| 20260905045023 | 57 | 275 | 7.0 | 0.0 | 0.00 | 0.00 | 0.00 | 100 | 1006.3 |
| 20260905044503 | 57 | 256 | 7.0 | 0.0 | 0.00 | 0.00 | 0.00 | 100 | 1006.2 |
| 20260905044029 | 57 | 249 | 8.0 | 0.0 | 0.00 | 0.00 | 0.00 | 100 | 1006.0 |
| 20260905043509 | 57 | 262 | 9.0 | 0.0 | 0.00 | 0.00 | 0.00 | 100 | 1006.1 |
| 20260905043036 | 57 | 250 | 8.0 | 0.0 | 0.00 | 0.00 | 0.00 | 100 | 1005.8 |
| 20260905042516 | 57 | 249 | 11.0 | 0.0 | 0.00 | 0.00 | 0.00 | 100 | 1006.0 |
| 20260905042042 | 57 | 263 | 9.0 | 0.0 | 0.00 | 0.00 | 0.00 | 100 | 1005.8 |
| 20260905041522 | 57 | 260 | 7.0 | 0.0 | 0.00 | 0.00 | 0.00 | 100 | 1005.8 |
| 20260905041002 | 57 | 272 | 6.0 | 0.0 | 0.00 | 0.00 | 0.00 | 100 | 1005.8 |
| 20260905040527 | 57 | 252 | 6.0 | 0.0 | 0.00 | 0.00 | 0.00 | 100 | 1005.6 |
| 20260905040008 | 57 | 257 | 10.0 | 0.0 | 0.00 | 0.00 | 0.00 | 100 | 1005.6 |
| 20260905035534 | 57 | 262 | 14.0 | 0.0 | 0.00 | 0.00 | 0.00 | 100 | 1005.5 |
| 20260905035014 | 57 | 283 | 7.0 | 0.0 | 0.00 | 0.00 | 0.00 | 100 | 1005.5 |
| 20260905034540 | 57 | 272 | 8.0 | 0.0 | 0.00 | 0.00 | 0.00 | 100 | 1005.4 |
| 20260905034021 | 57 | 266 | 10.0 | 0.0 | 0.00 | 0.00 | 0.00 | 100 | 1005.4 |
| 20260905033501 | 57 | 272 | 10.0 | 0.0 | 0.00 | 0.00 | 0.00 | 100 | 1005.3 |
| 20260905033028 | 56 | 262 | 16.0 | 0.0 | 0.00 | 0.00 | 0.00 | 100 | 1005.2 |
| 20260905032508 | 56 | 262 | 8.0 | 0.0 | 0.00 | 0.00 | 0.00 | 100 | 1005.3 |
| 20260905032034 | 56 | 267 | 10.0 | 0.0 | 0.00 | 0.00 | 0.00 | 100 | 1005.0 |
| 20260905031513 | 56 | 264 | 8.0 | 0.0 | 0.00 | 0.00 | 0.00 | 100 | 1005.0 |
| 20260905031039 | 56 | 278 | 11.0 | 0.0 | 0.00 | 0.00 | 0.00 | 100 | 1004.9 |
| 20260905030520 | 56 | 261 | 13.0 | 0.0 | 0.00 | 0.00 | 0.00 | 100 | 1004.9 |
| 20260905030000 | 56 | 288 | 6.0 | 0.0 | 0.00 | 0.00 | 0.00 | 100 | 1004.9 |
| 20260905025526 | 56 | 258 | 11.0 | 0.0 | 0.00 | 0.00 | 0.00 | 100 | 1004.8 |
| 20260905025006 | 56 | 262 | 8.0 | 0.0 | 0.00 | 0.00 | 0.00 | 100 | 1004.9 |
| 20260905024533 | 56 | 259 | 11.0 | 0.0 | 0.00 | 0.00 | 0.00 | 100 | 1004.9 |
| 20260905024013 | 56 | 272 | 9.0 | 0.0 | 0.00 | 0.00 | 0.00 | 100 | 1004.8 |
| 20260905023539 | 56 | 264 | 15.0 | 0.0 | 0.00 | 0.00 | 0.00 | 100 | 1004.7 |
| 20260905023019 | 56 | 262 | 17.0 | 0.0 | 0.00 | 0.00 | 0.00 | 100 | 1004.6 |
| 20260905022546 | 56 | 267 | 13.0 | 0.0 | 0.00 | 0.00 | 0.00 | 100 | 1004.6 |
| 20260905022026 | 56 | 272 | 14.0 | 0.0 | 0.00 | 0.00 | 0.00 | 100 | 1004.6 |
| 20260905021505 | 56 | 269 | 10.0 | 0.0 | 0.00 | 0.00 | 0.00 | 100 | 1004.5 |
| 20260905021032 | 57 | 279 | 12.0 | 0.0 | 0.00 | 0.00 | 0.00 | 100 | 1004.4 |
| 20260905020512 | 57 | 276 | 10.0 | 0.0 | 0.00 | 0.00 | 0.00 | 100 | 1004.4 |
| 20260905020038 | 57 | 287 | 14.0 | 0.0 | 0.00 | 0.00 | 0.00 | 100 | 1004.4 |
| 20260905015519 | 57 | 279 | 7.0 | 0.0 | 0.00 | 0.00 | 0.00 | 100 | 1004.3 |
| 20260905015044 | 57 | 297 | 7.0 | 0.0 | 0.00 | 0.00 | 0.00 | 100 | 1004.2 |
| 20260905014526 | 57 | 309 | 8.0 | 0.0 | 0.00 | 0.00 | 0.00 | 100 | 1004.2 |
| 20260905014006 | 57 | 245 | 3.0 | 0.0 | 0.00 | 0.00 | 0.00 | 100 | 1004.1 |
| 20260905013532 | 57 | 281 | 12.0 | 0.0 | 0.00 | 0.00 | 0.00 | 100 | 1003.9 |
| 20260905013012 | 58 | 275 | 12.0 | 0.0 | 0.00 | 0.00 | 0.00 | 100 | 1004.0 |
| 20260905012538 | 58 | 275 | 11.0 | 0.0 | 0.00 | 0.00 | 0.00 | 100 | 1003.8 |
| 20260905012018 | 58 | 268 | 12.0 | 0.0 | 0.00 | 0.00 | 0.00 | 100 | 1003.8 |
| 20260905011544 | 58 | 262 | 10.0 | 0.0 | 0.00 | 0.00 | 0.00 | 100 | 1003.7 |
| 20260905011025 | 58 | 282 | 10.0 | 0.0 | 0.00 | 0.00 | 0.00 | 100 | 1003.6 |
| 20260905010505 | 58 | 265 | 16.0 | 0.0 | 0.00 | 0.00 | 0.00 | 100 | 1003.3 |
| 20260905010031 | 58 | 291 | 9.0 | 0.0 | 0.00 | 0.00 | 0.00 | 100 | 1003.4 |
| 20260905005511 | 58 | 289 | 12.0 | 0.0 | 0.00 | 0.00 | 0.00 | 100 | 1003.4 |
| 20260905005036 | 58 | 268 | 14.0 | 0.0 | 0.00 | 0.00 | 0.00 | 100 | 1003.3 |
| 20260905004517 | 58 | 262 | 15.0 | 0.0 | 0.00 | 0.00 | 0.00 | 100 | 1003.2 |
| 20260905004042 | 59 | 262 | 11.0 | 0.0 | 0.00 | 0.00 | 0.00 | 100 | 1003.3 |
| 20260905003523 | 59 | 267 | 12.0 | 0.0 | 0.00 | 0.00 | 0.00 | 100 | 1003.2 |
| 20260905003004 | 59 | 274 | 13.0 | 0.0 | 0.00 | 0.00 | 0.00 | 100 | 1003.1 |
| 20260905002530 | 59 | 264 | 11.0 | 0.0 | 0.00 | 0.00 | 0.00 | 100 | 1003.1 |
| 20260905002010 | 59 | 258 | 16.0 | 0.0 | 0.00 | 0.00 | 0.00 | 100 | 1002.9 |
| 20260905001536 | 59 | 265 | 14.0 | 0.0 | 0.00 | 0.00 | 0.00 | 100 | 1002.9 |
| 20260905001016 | 60 | 273 | 16.0 | 0.0 | 0.00 | 0.00 | 0.00 | 100 | 1002.8 |
| 20260905000543 | 60 | 266 | 15.0 | 0.0 | 0.00 | 0.00 | 0.00 | 100 | 1002.7 |
| 20260905000023 | 60 | 291 | 8.0 | 0.0 | 0.00 | 0.00 | 0.00 | 100 | 1002.7 |
| 20260904235503 | 60 | 256 | 15.0 | 0.0 | 0.00 | 0.00 | 0.00 | 100 | 1002.6 |
| 20260904235029 | 60 | 275 | 13.0 | 0.0 | 0.00 | 0.00 | 0.00 | 100 | 1002.6 |
| 20260904234509 | 60 | 270 | 14.0 | 0.0 | 0.00 | 0.00 | 0.00 | 100 | 1002.6 |
| 20260904234035 | 60 | 271 | 12.0 | 0.0 | 0.00 | 0.00 | 0.00 | 100 | 1002.5 |
| 20260904233515 | 60 | 262 | 14.0 | 0.0 | 0.00 | 0.00 | 0.00 | 100 | 1002.5 |
| 20260904233132 | 60 | 292 | 5.0 | 0.0 | 0.00 | 0.00 | 0.00 | 100 | 1002.6 |
| 20260904232522 | 60 | 270 | 9.0 | 0.0 | 0.00 | 0.00 | 0.00 | 100 | 1002.6 |
| 20260904232002 | 60 | 257 | 7.0 | 0.0 | 0.00 | 0.00 | 0.00 | 100 | 1002.6 |
| 20260904231529 | 60 | 275 | 8.0 | 0.0 | 0.00 | 0.00 | 0.00 | 100 | 1002.6 |
| 20260904231009 | 61 | 236 | 6.0 | 0.0 | 0.00 | 0.00 | 0.00 | 100 | 1002.6 |
| 20260904230535 | 61 | 245 | 8.0 | 0.0 | 0.00 | 0.00 | 0.00 | 100 | 1002.6 |
| 20260904230015 | 61 | 252 | 6.0 | 0.0 | 0.00 | 0.00 | 0.00 | 100 | 1002.6 |
| 20260904225541 | 61 | 244 | 6.0 | 0.0 | 0.00 | 0.00 | 0.00 | 100 | 1002.7 |
| 20260904225021 | 61 | 261 | 5.0 | 0.0 | 0.00 | 0.00 | 0.00 | 100 | 1002.8 |
| 20260904224503 | 61 | 263 | 4.0 | 0.0 | 0.00 | 0.00 | 0.00 | 100 | 1002.9 |
| 20260904224028 | 61 | 234 | 5.0 | 0.0 | 0.00 | 0.00 | 0.00 | 100 | 1002.9 |
| 20260904223508 | 61 | 256 | 4.0 | 0.0 | 0.00 | 0.00 | 0.00 | 100 | 1002.9 |
| 20260904223034 | 61 | 261 | 6.0 | 0.0 | 0.00 | 0.00 | 0.00 | 100 | 1002.8 |
| 20260904222515 | 61 | 268 | 3.0 | 0.0 | 0.00 | 0.00 | 0.00 | 100 | 1002.7 |
| 20260904222040 | 61 | 256 | 6.0 | 0.0 | 0.00 | 0.00 | 0.00 | 100 | 1002.7 |
| 20260904221520 | 61 | 254 | 8.0 | 0.0 | 0.00 | 0.00 | 0.00 | 100 | 1002.7 |
| 20260904221000 | 61 | 248 | 6.0 | 0.0 | 0.00 | 0.00 | 0.00 | 100 | 1002.7 |
| 20260904220527 | 61 | 265 | 7.0 | 0.0 | 0.00 | 0.00 | 0.00 | 100 | 1002.8 |
| 20260904220007 | 61 | 233 | 6.0 | 0.0 | 0.00 | 0.00 | 0.00 | 100 | 1002.8 |
| 20260904215533 | 61 | 275 | 4.0 | 0.0 | 0.00 | 0.00 | 0.00 | 100 | 1002.7 |